User: anonymous   Login
Location: Hobi?a Gr?di?te
(45.4833°N, 22.7833°E)
Time: 01:53:24
(UTC+00:00)
Language:

Cosmos 1328 - Orbit

View from above orbital plane
View from above orbital plane
View from above satellite
View from above satellite

Ground track
Ground track

The orbit data is extracted from the following two-line orbital elements,

1 12987U 81117A   23154.40971948  .00005350  00000-0  30478-3 0  9990
2 12987  82.5006 278.0329 0019301 113.3728 246.9535 15.12448751260415
Epoch (UTC): 03 June 2023 09:49:59
Eccentricity: 0.0019301
inclination: 82.5006°
perigee height: 515 km
apogee height: 542 km
right ascension of ascending node: 278.0329°
argument of perigee: 113.3728°
revolutions per day: 15.12448751
mean anomaly at epoch: 246.9535°
orbit number at epoch: 26041

The dashed part of the orbit path shows where the satellite is in the earth's shadow,  

DLR